Regional Weather Roundup
Issued by NWS

Home | Current Version | Previous Version | Text Only | Print | Product List | Glossary Off
Versions: 1 2 3 4 5 6 7 8 9 10 11 12 13 14 15 16 17 18 19 20 21 22 23 24 25 26 27

000
ASUS45 KSLC 220910
RWRUT

UTAH REGIONAL WEATHER ROUNDUP
NATIONAL WEATHER SERVICE SALT LAKE CITY UT
300 AM MDT SAT APR 22 2017

UTZ001>011-023>025-221000-

NORTHERN UTAH

CITY           SKY/WX    TMP DP  RH WIND       PRES   REMARKS
BRIGHAM CITY   CLEAR     38  33  82 CALM      30.26F
HILL AFB       CLEAR     38  27  65 SE13      30.24F WCI  30
LOGAN          CLEAR     36  32  85 CALM      30.26S
OGDEN          CLEAR     37  29  72 S7        30.24S WCI  32
SALT LAKE CITY CLEAR     41  30  65 S6        30.24S
TOOELE VALLEY  CLEAR     32  30  93 S10       30.25S WCI  24
WENDOVER       PTCLDY    41  32  70 NW3       30.25F
HEBER CITY     CLEAR     25  21  86 CALM      30.25S
WEST JORDAN    CLEAR     38  35  88 CALM      30.25F

$$

UTZ011>015-024>027-221000-

CENTRAL/NORTHEAST UTAH

CITY           SKY/WX    TMP DP  RH WIND       PRES   REMARKS
PROVO AIRPORT  CLEAR     36  27  69 E3        30.26S
MOAB/CANYONLAN CLEAR     42  11  28 CALM      30.14F
DELTA          CLEAR     36  23  60 N5        30.23F WCI  32
PRICE          CLEAR     31  15  52 N5        30.19F WCI  26
ROOSEVELT      CLEAR     32  21  64 W6        30.24S WCI  26
VERNAL         PTCLDY    38  19  46 NE6       30.21S WCI  33

$$

UTZ013>016-019>022-027-221000-

SOUTHERN UTAH

CITY           SKY/WX    TMP DP  RH WIND       PRES   REMARKS
BRYCE CANYON   CLEAR     31  15  52 W12G18    30.22F WCI  22
CEDAR CITY     CLEAR     34  18  52 N6        30.20S WCI  29
MILFORD        CLEAR     35  22  58 CALM      30.22F
ST GEORGE      SUNNY     57  21  24 E3        30.10R
HANKSVILLE     CLEAR     43  19  39 NW5       30.20S
BLANDING       CLEAR     40  13  33 NW14G20   30.21S WCI  32

$$

REGIONAL REPORTS     COLORADO/ARIZONA

CITY           SKY/WX    TMP DP  RH WIND       PRES   REMARKS
CRAIG, CO      CLOUDY    32  28  85 CALM      30.23S
GRAND JUNCTION PTCLDY    46  26  45 CALM      30.15R
RIFLE, CO      CLOUDY    36  32  85 E3        30.20S
MONTROSE, CO   CLEAR     32  22  66 SE6       30.17S WCI  26
CORTEZ, CO     CLOUDY    30  16  56 E6        30.14S WCI  24
COLORADO CITY    N/A     34  23  64 S3        30.16S
PAGE, AZ       CLEAR     56  21  25 N5        30.10S
GRAND CANYON   CLEAR     29  17  61 CALM      30.16S
KINGMAN, AZ    CLEAR     46  24  42 E7        30.03F
FLAGSTAFF, AZ  CLEAR     30  15  53 CALM      30.15F

$$

REGIONAL REPORTS    NEVADA/IDAHO/WYOMING

CITY           SKY/WX    TMP DP  RH WIND       PRES   REMARKS
LAS VEGAS, NV  PTCLDY    66  20  17 N3        30.01S
ELY, NY        CLEAR     31  22  69 S8        30.23S WCI  23
ELKO, NV       CLEAR     40  22  48 E7        30.20F
POCATELLO, ID  CLEAR     32  29  88 S3        30.27F
BURLEY, ID     CLEAR     32  25  75 S5        30.24F WCI  27
FORT BRIDGER,    N/A     30  25  81 W10       30.28S WCI  21
EVANSTON, WY   CLEAR     26  22  84 SW3       30.25F
ROCK SPRINGS,  MOCLDY    31  23  72 SW8       30.24S WCI  23

$$




USA.gov is the U.S. government's official web portal to all federal, state and local government web resources and services.